{"data":{"norad_id":54090,"epoch":"2026-09-20T22:00:03.000096Z","epoch_age_seconds":53203,"freshness":"FRESH","line1":"1 54090U 22136AR  26263.91670139  .00006669  00000+0  27300-3 0  9998","line2":"2 54090  53.1612 175.7359 0002099  72.1634 356.9832 15.25491177  5809","mean_motion":15.25491177,"eccentricity":0.0002099,"inclination_deg":53.1612,"raan_deg":175.7359,"arg_perigee_deg":72.1634,"mean_anomaly_deg":356.9832,"bstar":0.000273,"rev_number":580,"period_min":94.395826191003,"perigee_km":487.86944215825,"apogee_km":490.75239679485,"semimajor_km":6867.4479194766,"source":"CELESTRAK","updated_at":"2026-09-21T09:00:33.083412Z"}}